Regional Weather Roundup
Issued by NWS

Home | Current Version | Previous Version | Graphics & Text | Print | Product List | Glossary On
Versions: 1 2 3 4 5 6 7 8 9 10 11 12 13 14 15 16 17 18 19 20 21 22 23 24 25 26 27 28 29 30 31 32 33 34 35 36 37 38 39 40 41 42 43 44 45 46 47 48 49 50
000
ASUS43 KBIS 042020
RWRND

NORTH DAKOTA REGIONAL WEATHER ROUNDUP
NATIONAL WEATHER SERVICE BISMARCK ND
300 PM CDT MON MAY 04 2015

NOTE: "FAIR" INDICATES FEW OR NO CLOUDS BELOW 12,000 FEET WITH NO
SIGNIFICANT WEATHER AND/OR OBSTRUCTIONS TO VISIBILITY.


NDZ001>003-009>011-017-042100-
NORTHWEST NORTH DAKOTA

CITY           SKY/WX    TMP DP  RH WIND       PRES   REMARKS
WILLISTON      SUNNY     72  25  17 SE20      30.08F
MINOT          SUNNY     68  23  18 S12       30.14F
MINOT AFB      SUNNY     69  26  19 SW12G21   30.13F
$$

NDZ018>021-031>035-040>046-042100-
SOUTHWEST NORTH DAKOTA

CITY           SKY/WX    TMP DP  RH WIND       PRES   REMARKS
BISMARCK       SUNNY     69  24  18 S13       30.18F
DICKINSON      SUNNY     65  33  30 S23G31    30.13F
GARRISON         N/A     69  26  20 S14       30.14F
HETTINGER ARPT CLOUDY    55  36  48 S24G31    30.19S
$$

NDZ004>008-012>016-024-026-027-054-042100-
NORTHEAST NORTH DAKOTA

CITY           SKY/WX    TMP DP  RH WIND       PRES   REMARKS
GRAND FORKS    MOSUNNY   67  26  21 VRB3      30.20F
GRND FRKS AFB  SUNNY     66  26  21 VRB2      30.20F
DEVILS LAKE    SUNNY     64  27  24 S9        30.18F
$$

NDZ022-023-025-028>030-036>039-047>053-042100-
SOUTHEAST NORTH DAKOTA

CITY           SKY/WX    TMP DP  RH WIND       PRES   REMARKS
FARGO          PTSUNNY   68  28  22 VRB6      30.21S
JAMESTOWN      MOSUNNY   66  23  19 VRB5      30.19F
$$




USA.gov is the U.S. government's official web portal to all federal, state and local government web resources and services.